Disclaimer

Please do not use the information listed here in-flight or in-navigation, as they are not provided to us by the airports but are provided by volunteers, so they might be outdated.

Search


Regions


Airport information page

Radio informations:
Tower (TWR) - 122.1 MHz
Ground (GND) - 121.95 MHz
Approach (APP) - 122.1 MHz

Airport informations:
Latitude: 38° 46' 13.39" N
Longitude: 035° 29' 43.54" E
Elevation: 3463 feet - 1056 meters
Operating hours: N/A
Operating agency: Military-civil joint use airport
Timezone: UTC+2(+3DT)
Fuel: JP-4, Wide cut turbine fuel MIL Spec T-5624

115/145 octane gasoline, leaded, MIL-L-5572F (PURPLE)

Runway information:
07/25 - 9841 x 145 feet< - >3000 x 44 meters

Recent METARs:
LTAU 171029Z 28011KT 1800 SN SCT010 BKN025 M04/M06 Q1017 BECMG TL0950 8000 NSW RMK RWY07 /////KT
LTAU 171050Z 28012KT 7000 -SN SCT010 BKN025 M03/M05 Q1017 RESN NOSIG RMK RWY07 /////KT
LTAU 171120Z 28014KT 9999 SCT010 BKN025 M03/M06 Q1017 RESN NOSIG RMK RWY07 /////KT

Airport on the map: